Wind_Speed
78 80 83 85 86 86 87 87 88 89 90 90 88 86 83 81 79 79 79 78 78 76 75 73 73 73 73 72 72 70 69 67 66 64 64 63 63 63 63 64 66 68 69 70 70 70 70 70 70 70 70 70 70 70 71 71 72 72 72 73 73 73 74 74 74 74 74 74 75 75 75 76 76 76 77 77 78 79 80 82 83 85 85 86 86 86
77 80 82 84 86 87 87 88 89 90 91 91 90 88 85 83 81 80 80 80 79 77 76 74 73 73 73 72 72 70 69 68 66 65 64 63 63 63 63 64 66 68 69 70 70 70 70 70 70 70 71 71 71 71 72 72 72 73 73 73 73 73 73 73 73 73 73 74 74 75 75 76 76 77 77 78 78 79 81 83 84 85 85 85 86 87
76 79 82 84 86 88 89 89 90 91 92 91 90 88 86 84 83 82 82 81 80 79 77 76 75 74 73 72 71 70 69 68 67 66 65 64 63 63 64 65 67 68 69 70 70 70 70 70 71 71 71 72 72 72 72 73 73 73 73 73 73 73 73 73 73 73 73 74 74 75 76 76 76 77 77 78 79 80 82 83 85 85 85 85 86 87
74 78 81 84 86 88 90 90 91 92 92 92 90 89 87 85 84 83 83 82 82 80 79 78 76 75 74 72 71 70 69 68 68 66 65 64 64 64 64 66 67 69 70 70 70 71 71 71 72 72 72 73 73 73 73 73 73 73 73 73 73 73 72 72 72 72 73 74 74 75 76 76 77 77 78 79 80 81 83 84 85 85 85 85 86 87
72 75 79 82 85 88 90 91 91 92 92 91 90 89 88 86 85 84 83 83 82 81 80 79 78 76 74 73 71 70 69 69 68 67 66 65 64 64 65 66 68 69 70 71 71 71 71 72 72 73 73 73 73 73 73 73 73 73 73 73 73 72 72 72 72 72 73 74 75 75 76 76 77 77 78 79 81 82 84 85 85 85 85 86 87 88
70 73 76 80 83 87 89 91 91 92 91 91 90 89 88 87 86 84 83 83 82 82 81 80 78 76 74 73 71 70 70 69 69 67 66 65 64 64 65 67 68 70 70 70 71 71 72 73 73 74 74 74 74 73 73 73 73 73 73 73 72 72 71 71 72 73 73 74 75 75 76 76 77 78 79 80 81 83 84 84 85 85 85 86 87 88
69 72 75 78 81 85 88 90 91 91 91 90 90 89 89 88 86 85 83 82 82 81 81 80 78 76 74 72 71 71 70 70 69 68 67 66 65 65 66 67 69 70 70 70 71 71 72 73 73 73 74 74 74 73 74 74 74 73 73 72 72 71 71 72 72 73 74 74 75 75 76 76 77 78 79 80 82 83 84 84 84 85 86 87 88 89
69 71 74 76 79 83 86 88 90 91 90 90 90 89 89 88 87 86 84 83 82 81 80 79 77 75 73 72 71 71 70 70 70 69 68 67 66 66 67 68 69 70 69 69 70 71 72 72 73 73 73 73 73 73 74 74 74 73 72 72 71 71 71 72 72 73 74 74 75 75 76 76 77 78 80 81 82 83 84 84 85 85 86 87 88 89
70 72 74 76 78 80 83 86 89 90 90 90 90 89 89 88 87 86 85 83 82 81 79 78 76 74 73 72 71 70 70 71 70 70 69 68 68 68 68 69 70 69 69 69 69 70 71 72 72 72 72 72 73 73 74 74 73 72 71 71 71 71 71 72 72 73 73 74 74 75 75 76 78 79 80 82 83 83 84 84 85 86 87 88 88 89
72 73 74 76 78 80 82 85 87 89 90 91 91 90 89 88 87 86 85 84 82 81 80 78 76 75 73 72 71 70 70 71 71 70 70 70 69 69 70 70 70 69 68 68 69 69 70 71 71 71 71 72 73 73 74 73 72 71 70 70 70 70 70 71 71 72 72 73 74 75 76 77 78 80 81 83 83 84 84 85 85 86 87 88 88 89
73 74 75 76 78 79 81 83 86 89 90 90 90 90 89 88 87 86 85 84 83 82 80 78 77 75 73 72 72 71 71 71 71 71 70 70 70 70 70 70 70 69 68 68 68 69 70 70 71 71 71 72 73 73 73 72 71 70 69 69 69 70 70 70 71 72 73 73 74 76 77 78 80 81 82 83 84 84 84 85 85 86 87 87 88 89
74 75 76 77 77 78 80 82 85 87 89 90 90 89 88 88 87 86 85 84 83 81 80 79 77 76 74 73 73 72 72 71 71 71 71 71 71 71 70 70 69 68 67 67 68 69 70 70 70 71 71 72 73 73 72 71 70 69 69 69 69 70 70 71 72 73 74 75 76 78 79 80 81 82 83 83 83 84 84 85 85 86 86 87 88 89
76 76 77 77 78 78 79 81 83 86 88 89 89 89 89 88 87 86 85 84 83 82 81 80 78 77 76 75 74 73 73 73 73 72 72 71 71 71 70 69 68 68 67 67 68 69 70 70 71 71 72 73 73 73 72 71 70 70 70 70 70 71 72 72 73 75 76 77 78 79 80 81 82 83 83 83 83 83 84 84 85 85 86 87 88 90
76 78 78 79 79 79 80 81 82 84 87 88 89 90 90 89 88 87 86 85 84 83 82 81 79 78 77 76 75 75 75 75 75 75 74 73 72 71 70 69 68 68 68 67 68 69 70 70 71 72 73 74 74 73 73 72 71 71 71 72 72 73 74 74 75 76 78 79 80 80 81 82 82 82 82 82 82 83 83 84 84 85 86 87 89 90
75 78 80 80 81 81 81 81 82 84 86 88 89 90 90 89 89 88 88 87 86 86 84 83 81 80 78 77 77 77 77 77 77 76 76 75 74 73 71 70 69 69 68 69 69 70 71 71 72 73 74 75 75 74 74 73 73 73 73 74 74 75 75 76 77 78 79 79 80 81 81 82 82 81 81 82 82 82 83 84 84 85 87 88 89 90
73 77 80 82 82 83 83 83 83 84 86 87 88 89 89 89 89 89 89 88 88 87 86 85 83 82 81 80 79 79 79 78 78 78 77 76 76 75 73 71 70 70 70 70 71 72 72 73 73 74 75 76 76 76 75 75 75 75 75 76 76 76 76 77 78 78 79 80 80 81 81 81 81 81 81 81 82 82 83 84 84 86 87 88 90 91
69 74 79 82 84 84 85 85 85 85 86 87 88 88 89 89 90 89 89 89 89 89 88 86 85 84 83 82 81 81 80 79 79 79 78 77 77 76 75 73 72 72 72 72 73 74 74 74 75 76 76 77 77 77 77 76 76 76 76 76 77 77 77 78 78 79 79 80 80 80 80 80 80 80 80 81 81 82 83 84 85 86 88 89 90 91
66 70 75 80 83 85 86 86 86 87 87 87 88 89 89 89 90 90 90 90 90 90 89 88 87 86 85 84 83 83 82 81 80 80 79 78 78 77 76 75 74 73 73 74 74 75 75 76 76 77 77 78 78 78 77 77 77 77 77 77 77 77 78 78 79 79 80 80 80 80 80 80 80 80 80 80 81 82 83 84 86 87 88 89 90 92
64 67 71 76 81 84 86 87 88 88 88 88 89 89 90 90 90 90 91 91 91 90 89 88 87 87 86 86 85 85 84 83 82 81 80 79 78 78 76 75 75 74 74 75 75 76 76 77 77 78 78 78 78 78 78 78 77 77 77 77 77 78 78 78 79 79 79 79 79 79 79 79 79 79 80 80 81 82 84 85 86 88 89 90 91 92
62 64 68 72 77 81 84 86 88 89 89 89 90 90 90 91 91 91 91 91 91 90 90 89 88 88 87 87 87 87 86 85 84 83 82 81 80 79 78 76 75 75 75 75 76 76 77 77 78 78 79 79 79 78 78 78 77 77 77 77 77 77 78 78 78 78 78 78 78 78 78 78 79 79 80 81 82 83 85 86 87 88 89 90 91 92
62 63 65 69 72 76 80 84 86 88 89 90 90 91 92 92 92 92 92 92 91 91 90 89 89 89 89 88 88 88 88 87 86 85 84 83 82 81 79 78 77 76 76 76 76 76 77 77 78 78 78 78 78 78 78 77 77 77 76 77 77 77 77 77 77 77 77 77 77 78 78 78 79 80 81 82 83 84 86 87 88 89 90 91 92 93
62 63 64 66 69 72 76 80 82 85 87 89 91 92 93 93 93 93 93 93 92 92 91 90 90 90 90 89 89 89 89 88 87 86 86 85 84 83 82 80 79 78 77 77 77 77 77 77 78 78 78 78 78 77 77 76 76 76 76 76 76 77 77 77 77 77 77 77 78 78 79 80 81 82 83 84 85 86 87 88 89 90 90 91 92 93
62 63 64 65 67 69 72 75 78 80 84 87 90 92 93 94 94 94 94 94 94 93 92 91 91 91 91 91 91 90 90 89 88 88 87 87 86 86 85 83 82 81 80 80 80 79 79 79 78 78 78 78 78 77 77 76 76 76 76 77 77 77 77 77 77 77 78 78 79 79 80 81 82 83 84 85 86 87 88 89 89 90 91 92 92 93
62 63 64 64 66 67 69 71 74 77 81 86 89 92 93 93 94 94 95 95 94 94 93 92 92 92 92 92 92 92 91 91 90 90 90 89 89 88 87 86 85 84 83 83 82 82 81 80 80 80 79 79 78 78 78 77 77 77 77 78 78 78 78 78 78 79 79 80 80 81 82 83 84 85 85 86 87 88 88 89 90 90 91 92 92 93
62 63 64 65 66 67 68 70 72 76 80 84 88 90 91 92 93 93 94 94 95 94 94 94 93 94 94 94 94 94 94 93 93 92 92 91 91 90 89 88 87 86 86 85 85 84 83 82 82 81 81 80 80 80 79 79 79 79 79 79 79 79 79 79 80 80 81 81 82 83 84 85 85 86 86 87 88 88 89 89 90 90 91 91 92 93
60 63 65 66 67 68 68 70 71 74 78 81 85 87 88 89 90 91 92 93 94 94 95 95 95 95 96 96 96 96 96 95 94 94 94 93 93 92 91 90 89 88 87 87 86 85 84 84 84 83 82 82 82 81 81 81 81 81 80 80 80 80 80 81 81 82 82 83 84 84 85 85 86 86 86 87 88 88 89 89 90 90 91 91 92 92
58 61 64 66 67 68 69 70 71 73 75 78 80 83 85 86 88 89 90 92 93 94 95 95 96 96 97 97 98 98 97 96 96 95 95 95 94 94 93 92 90 89 88 88 87 86 85 85 84 84 83 83 83 82 82 82 82 81 81 81 81 81 82 82 82 83 83 84 84 85 85 85 86 86 87 87 88 88 88 89 89 90 90 91 92 92
55 58 61 64 67 69 70 71 72 73 74 75 77 80 82 84 85 87 89 90 92 93 94 95 96 97 97 98 98 98 98 97 96 96 95 95 95 94 94 93 91 90 89 88 88 87 86 85 85 84 84 84 83 83 83 82 82 82 82 82 82 82 82 83 83 83 84 84 85 85 85 85 86 86 87 87 88 88 88 89 89 90 90 91 92 92
53 56 58 61 64 67 69 71 72 73 74 75 76 78 80 82 84 85 87 89 90 91 92 94 95 96 97 98 98 98 97 97 96 95 95 94 94 94 94 93 92 91 90 89 88 88 87 86 86 85 85 84 84 84 83 83 83 83 83 82 82 82 83 83 83 84 84 84 85 85 85 86 86 87 87 88 88 88 88 89 89 90 90 91 92 92
52 54 56 58 61 64 67 69 71 73 74 75 76 77 79 81 83 84 86 87 88 89 91 93 94 95 96 97 97 96 96 96 95 94 94 93 93 94 94 93 92 92 91 90 89 88 88 88 87 87 86 86 85 85 85 84 84 84 83 83 83 83 83 84 84 84 84 85 85 85 86 86 87 87 87 88 88 88 88 89 89 90 90 91 92 92
51 52 54 56 59 61 63 66 69 71 73 74 76 77 78 80 82 83 84 85 86 87 89 90 92 94 95 95 95 94 95 95 95 94 93 92 92 93 93 92 92 92 92 91 90 89 89 89 89 89 88 87 87 86 86 86 85 85 85 85 84 84 84 85 85 85 85 86 86 86 86 87 87 87 87 88 88 88 88 89 89 90 90 91 92 92
49 51 53 55 57 59 61 63 66 68 71 73 74 76 77 79 81 83 83 84 84 85 87 88 90 91 92 93 93 93 94 94 94 93 92 91 91 92 92 92 92 92 92 92 91 91 90 91 91 90 89 89 88 88 87 87 86 86 86 86 85 85 86 86 86 86 86 86 86 86 87 87 87 87 87 87 88 88 88 89 89 90 90 91 91 92
48 50 52 54 55 57 59 61 63 66 68 70 72 74 76 78 80 81 82 83 83 84 86 87 88 89 90 91 91 92 93 93 92 92 91 90 90 91 91 91 91 92 92 92 92 91 91 91 91 91 90 90 89 89 88 88 87 87 87 86 86 86 86 86 86 86 86 86 86 86 86 86 87 87 87 87 88 88 89 89 90 90 90 91 91 91
46 48 50 52 54 56 58 60 62 64 66 68 70 72 74 76 78 80 81 81 82 84 85 86 87 88 89 89 89 90 90 91 91 91 90 89 89 90 90 90 90 91 91 91 91 91 91 91 91 90 90 90 89 89 88 88 88 87 87 87 86 86 86 86 85 85 86 85 86 86 86 86 86 86 87 87 88 88 89 89 90 90 90 90 90 90
44 46 49 51 53 55 57 59 61 63 64 66 68 70 72 74 76 77 79 80 82 83 85 86 87 88 88 88 88 89 89 90 90 90 90 89 89 89 90 90 90 90 91 91 91 91 90 90 90 90 89 89 89 89 88 88 87 87 87 86 86 85 85 85 85 85 85 85 85 85 85 86 86 86 87 87 88 88 89 89 89 89 89 89 89 89
42 44 47 49 52 54 56 58 60 61 63 65 66 68 70 71 73 75 77 79 81 82 84 85 86 87 88 88 88 88 89 89 90 90 89 89 89 89 89 90 91 91 90 90 91 91 90 90 90 90 89 88 88 88 88 87 87 86 86 85 85 85 84 84 84 84 84 84 85 85 85 86 86 87 87 88 88 88 89 89 89 89 88 88 88 87
40 42 45 48 50 53 55 57 59 60 62 63 64 66 68 70 72 74 76 77 79 81 82 84 86 87 87 88 88 88 89 89 90 90 90 90 90 90 90 91 91 91 91 91 91 91 90 90 90 90 89 88 88 87 87 87 86 86 85 85 85 84 84 84 84 84 84 84 85 85 86 86 86 87 87 88 88 88 88 88 88 87 87 86 86 86
39 41 43 46 49 51 54 56 58 59 61 62 63 65 66 68 70 72 74 76 77 79 81 83 85 86 87 87 87 88 88 88 89 89 90 90 90 90 90 91 91 91 91 91 91 90 90 90 89 89 89 88 88 87 87 86 85 85 85 85 85 84 84 84 84 84 84 85 85 86 86 86 87 87 87 88 88 88 87 87 86 86 85 84 84 84
40 40 42 44 47 50 53 55 57 58 60 61 62 64 66 68 70 71 73 74 76 77 80 82 84 85 86 86 86 86 87 87 88 89 89 90 90 90 90 90 90 90 90 90 90 89 89 89 88 88 88 87 87 87 86 86 85 85 85 85 84 84 84 84 84 85 85 85 85 86 86 87 87 87 87 87 87 86 85 85 84 83 83 82 83 83
42 41 42 43 45 48 51 54 56 58 59 60 62 63 65 67 69 71 72 73 75 76 78 80 82 83 84 85 85 85 86 86 87 87 88 88 88 89 89 88 89 89 89 89 88 88 87 87 87 87 86 86 86 85 85 85 85 85 84 84 84 84 84 85 85 85 85 86 86 86 86 87 87 87 86 86 85 84 83 82 81 81 81 81 82 83
45 44 43 43 44 47 50 53 55 57 59 60 62 63 65 67 69 71 72 73 74 76 77 78 80 81 82 83 83 84 84 84 85 85 86 86 87 87 87 87 87 88 88 87 87 87 86 86 86 85 85 85 85 85 85 85 85 85 84 83 84 84 85 85 85 85 85 86 86 86 86 86 86 85 84 83 82 81 80 79 79 79 80 81 81 82
48 46 45 44 44 45 48 51 54 56 58 60 62 64 66 68 69 71 72 73 74 75 76 77 78 79 79 80 81 82 82 83 83 84 84 84 85 85 86 86 87 87 87 86 86 86 86 85 85 85 85 85 85 84 84 85 85 84 84 84 84 84 85 85 85 85 85 85 86 85 85 84 83 82 81 80 79 79 78 78 78 79 80 80 81 82
50 49 47 45 44 45 46 49 52 56 58 60 62 64 66 68 69 71 72 73 74 75 75 76 76 77 77 78 78 79 80 81 81 82 82 83 83 84 84 85 85 85 85 85 84 84 85 84 84 84 84 84 84 83 83 84 84 84 84 84 83 83 83 84 85 85 84 84 84 83 82 81 80 79 78 77 77 77 77 77 78 79 80 80 81 82
51 50 49 47 46 45 46 48 51 55 58 60 62 64 66 68 69 71 72 73 74 74 75 75 75 75 75 76 76 77 77 78 79 80 80 81 82 82 83 83 83 83 83 82 82 82 82 82 82 82 82 82 82 82 82 82 82 82 82 83 82 82 82 82 83 83 82 82 81 80 79 78 77 76 76 76 76 76 76 77 78 79 80 80 81 82
52 51 50 49 48 47 47 48 50 53 56 59 62 64 65 67 69 71 72 73 74 74 74 74 74 74 74 74 74 75 75 76 77 77 78 79 80 80 81 81 81 81 81 81 81 80 80 80 80 80 81 80 80 79 80 80 80 80 80 81 80 80 80 80 80 79 79 78 78 77 76 75 75 74 74 74 75 75 76 77 78 79 80 80 81 82
53 53 52 51 50 49 48 48 49 51 55 58 61 63 65 67 69 70 71 72 73 74 74 74 74 73 74 74 74 74 74 74 75 75 76 77 77 78 78 79 79 79 79 80 80 80 79 79 79 79 79 78 78 78 78 78 78 78 78 78 78 78 78 78 77 77 76 75 75 74 74 73 73 73 73 74 74 75 76 77 78 79 80 80 81 81
54 54 53 52 52 51 50 49 49 50 53 56 59 62 65 66 68 70 71 72 72 73 73 73 74 74 74 74 74 73 73 74 74 74 74 75 75 75 75 76 76 76 76 77 77 78 78 78 78 77 77 77 77 77 77 77 77 76 76 76 76 75 75 75 75 74 74 73 73 72 72 72 72 72 73 74 75 76 77 78 78 79 79 80 81 81
54 54 54 53 53 52 51 50 50 50 52 54 57 60 63 65 67 69 70 71 71 72 72 73 74 74 74 74 74 74 74 74 74 74 74 74 74 73 73 73 72 72 73 73 74 74 75 75 75 75 75 75 75 75 75 75 75 74 74 74 73 73 73 73 73 72 72 71 71 71 71 71 71 72 73 74 75 76 77 77 78 78 79 80 81 82
55 55 54 54 54 53 53 52 51 50 51 53 55 58 61 64 66 67 69 70 70 71 72 72 73 74 74 75 75 75 74 74 74 74 74 74 73 73 72 71 70 70 70 70 70 71 72 72 73 73 73 73 72 73 73 73 73 72 72 72 71 71 71 71 71 71 70 70 70 70 70 71 72 73 73 75 76 76 77 77 78 78 79 80 81 82
55 55 55 55 55 54 54 53 52 51 51 52 53 56 59 61 64 66 67 69 70 71 71 72 73 74 74 75 75 75 75 75 75 75 75 74 74 73 72 71 70 69 68 68 68 69 69 69 70 71 71 71 70 70 70 71 71 71 70 70 70 70 69 70 70 70 70 70 70 70 71 71 72 73 74 75 75 76 77 77 78 79 80 81 82 83
56 56 56 55 55 55 54 54 53 52 52 51 52 54 56 59 61 64 66 68 69 70 71 72 73 74 74 75 75 75 75 76 76 76 76 75 75 74 73 72 70 69 69 68 69 69 69 69 69 70 70 70 70 69 69 69 70 70 69 69 69 69 69 69 69 69 69 70 70 70 71 72 73 73 74 75 76 76 77 78 78 79 81 82 83 84
Wind_Direction
204 204 205 206 206 207 208 209 210 212 212 213 213 214 215 216 218 220 223 225 226 227 228 229 229 230 231 232 233 234 236 238 240 242 244 246 247 248 250 251 252 254 255 256 257 258 259 260 260 261 262 262 263 263 264 265 266 267 268 270 271 273 274 276 277 279 280 282 283 284 285 286 287 288 289 290 291 291 292 292 293 294 295 297 298 300
205 205 206 206 207 208 208 210 211 212 213 213 214 214 215 217 219 221 223 225 226 227 228 228 229 230 230 231 233 234 236 238 240 242 244 246 247 248 250 251 252 253 255 256 257 258 259 259 260 261 261 262 262 263 264 265 266 268 269 271 272 274 275 277 278 279 281 282 283 284 285 286 287 288 289 290 290 291 292 292 293 294 296 297 299 300
206 207 207 208 208 208 209 210 211 212 213 214 214 215 216 218 220 222 224 226 227 227 227 228 228 229 230 231 233 234 236 238 240 242 244 246 247 249 249 251 252 253 254 255 256 258 258 259 260 261 261 262 263 264 265 266 267 269 270 271 273 274 276 277 278 280 281 282 283 284 285 286 287 288 289 290 290 291 291 292 293 295 296 298 299 300
208 208 209 209 210 210 210 211 212 213 213 214 214 215 217 219 221 224 226 227 228 228 228 228 229 229 230 231 233 234 236 238 240 242 244 246 247 249 249 250 251 253 254 255 256 257 258 259 260 261 262 262 263 264 266 267 268 269 271 272 273 275 276 278 279 280 281 282 283 284 285 286 287 288 289 289 290 291 291 292 294 295 297 298 299 299
209 210 210 211 211 212 212 212 212 213 213 214 214 215 217 219 222 224 226 228 229 229 229 230 230 230 231 232 233 234 236 238 240 242 244 246 247 248 249 250 251 252 254 255 256 257 258 259 260 261 262 263 264 265 266 267 269 270 271 272 273 275 276 278 279 280 281 282 283 284 285 286 287 288 288 289 290 291 291 293 294 296 297 298 299 300
210 211 211 212 213 213 213 213 214 214 214 214 215 216 217 219 221 224 227 229 230 231 231 231 231 231 232 233 234 235 237 238 240 242 244 245 247 248 249 250 251 252 253 255 256 257 258 259 260 261 262 263 265 266 267 268 269 270 271 272 274 275 277 278 279 280 281 282 283 284 285 286 287 288 288 289 290 291 292 293 295 296 297 298 299 300
210 211 212 214 215 215 215 215 215 215 215 215 216 217 218 220 221 224 226 228 230 231 232 232 232 232 233 234 235 236 237 238 240 242 243 245 246 248 249 250 251 252 253 254 256 257 258 259 260 262 263 264 265 266 267 268 269 270 271 273 274 276 277 278 279 280 281 282 283 284 285 286 287 288 288 289 290 291 292 294 295 296 297 298 299 300
210 210 212 214 216 217 217 217 216 216 216 216 217 218 219 220 221 223 226 228 230 232 233 233 233 233 233 234 235 236 238 239 240 241 243 245 246 247 248 250 250 252 253 254 256 257 259 260 261 262 263 265 266 267 267 268 269 270 272 273 275 277 278 279 280 280 281 282 283 284 285 286 287 288 289 289 290 291 293 294 295 296 297 298 299 300
209 210 211 213 216 217 218 218 218 217 217 217 217 218 219 220 222 223 225 227 230 231 233 233 233 233 234 234 235 236 238 239 240 241 243 244 246 247 248 250 251 252 253 254 256 257 259 260 261 263 264 265 266 267 268 269 270 271 273 275 276 277 278 279 280 281 281 282 283 284 285 286 287 288 288 289 290 291 293 294 295 296 297 298 299 300
209 210 211 213 215 217 218 219 219 218 218 218 218 219 219 221 222 223 225 227 229 231 232 233 233 233 234 234 235 236 238 239 240 241 243 244 246 247 248 249 250 252 253 254 256 257 259 261 262 263 265 266 267 267 268 269 271 273 274 276 277 278 278 279 280 281 281 282 283 284 285 286 287 287 288 289 290 292 293 294 295 296 298 298 299 300
210 210 211 213 215 216 218 219 220 220 219 219 219 220 220 221 222 223 225 227 229 230 232 233 233 233 234 234 235 236 237 238 240 241 242 244 245 246 247 249 250 251 253 254 256 257 259 261 262 264 265 266 267 268 269 270 272 273 275 276 276 277 278 279 280 281 281 282 283 284 285 286 286 287 288 289 291 292 294 295 296 297 298 299 299 300
211 212 212 213 215 216 218 219 220 220 220 220 220 221 221 222 222 223 225 226 228 229 231 231 232 232 233 234 235 236 237 238 239 240 242 243 244 245 247 248 250 251 252 254 255 257 259 260 262 263 265 266 267 268 269 271 272 273 274 275 276 276 277 278 279 280 281 282 283 284 285 285 286 287 288 290 291 293 294 295 296 297 298 299 299 300
213 213 213 214 215 216 218 219 221 221 222 221 221 221 221 222 222 223 224 226 227 228 229 230 231 231 232 233 234 235 236 237 238 239 241 242 243 245 246 248 249 251 252 253 255 256 258 260 261 263 264 265 267 268 269 271 272 273 273 274 275 276 277 278 280 281 281 282 283 284 285 286 287 288 289 291 292 293 294 295 296 297 298 299 299 300
214 214 215 215 216 217 218 219 221 222 223 223 222 222 222 222 222 223 224 225 226 228 228 229 230 231 232 232 234 235 235 237 237 239 240 241 243 244 246 247 249 250 252 253 254 256 257 259 260 262 263 265 266 268 269 270 271 272 273 274 275 276 278 279 280 281 282 283 284 284 285 286 287 289 290 291 292 293 294 295 296 297 298 299 299 300
215 215 216 216 217 218 219 220 221 222 223 223 223 223 223 223 223 224 225 226 227 228 228 229 230 230 231 232 233 234 235 236 237 238 239 241 242 244 245 247 249 250 252 253 254 255 257 258 260 261 263 264 266 267 268 269 271 272 273 275 276 277 278 280 281 281 282 283 284 285 285 287 288 289 291 292 293 294 295 295 296 297 298 299 299 301
217 216 216 217 218 218 219 220 221 223 223 224 224 224 224 225 225 225 226 227 227 228 229 229 230 230 231 232 233 233 234 236 237 238 239 241 242 244 245 247 249 250 252 253 254 256 257 258 259 261 262 264 266 267 268 269 271 272 273 275 276 278 279 280 281 281 282 283 284 285 286 287 288 290 291 292 293 294 295 295 296 297 297 298 300 301
218 218 218 218 218 219 220 221 222 223 224 224 225 225 225 225 225 226 226 227 228 229 229 230 230 231 231 232 233 233 234 235 236 238 239 240 242 243 245 247 248 250 252 253 255 256 257 258 259 261 262 264 265 267 268 270 271 272 274 275 276 277 278 279 280 281 282 283 284 285 286 287 288 290 291 292 293 293 294 295 296 296 298 299 300 301
220 219 219 219 219 220 220 221 222 223 224 225 225 226 226 226 226 226 227 227 228 229 229 230 230 231 232 232 233 233 234 234 236 237 238 240 241 243 244 246 248 250 252 253 255 256 258 259 260 261 262 264 265 267 268 270 271 273 274 275 276 277 278 279 280 281 281 283 284 285 286 287 289 290 291 291 292 293 294 294 295 297 298 299 300 301
220 220 220 220 220 220 221 221 222 223 224 225 225 226 226 226 226 226 227 227 228 228 229 230 231 231 232 233 233 233 234 234 235 236 237 239 241 242 244 246 247 249 251 253 255 256 258 259 261 262 263 264 266 267 269 270 271 273 274 275 276 277 277 278 279 280 282 283 284 285 286 287 288 289 290 291 292 293 293 294 295 297 298 299 300 301
221 221 221 221 221 221 221 221 222 223 223 224 225 226 227 227 227 227 227 228 228 229 229 230 231 232 233 233 234 234 234 234 235 236 237 238 240 242 243 245 247 249 251 252 254 256 258 259 261 262 264 265 266 267 269 270 271 273 274 275 276 277 277 278 279 281 282 283 284 285 286 287 288 289 290 290 291 292 293 294 296 297 298 299 300 301
222 222 222 222 222 222 222 222 222 223 223 224 225 226 227 227 228 228 228 228 229 229 229 230 231 232 233 234 234 235 235 235 236 236 237 238 240 241 243 244 246 248 250 252 253 255 257 259 260 262 263 265 266 268 269 270 271 272 273 274 275 276 277 278 279 280 281 283 284 285 286 287 287 288 289 290 291 292 293 294 295 297 298 299 300 301
223 223 223 223 223 224 223 223 223 223 224 225 225 226 227 227 228 228 228 229 229 229 229 230 231 232 233 234 235 235 236 236 237 237 238 239 240 241 243 244 246 247 249 251 252 254 256 258 259 261 263 264 266 267 268 269 271 272 273 274 275 276 277 278 279 280 281 282 283 284 285 286 287 288 289 290 291 292 293 294 295 297 298 299 300 301
224 224 224 224 224 225 225 224 224 224 224 225 226 226 226 227 227 228 228 229 229 229 230 230 231 232 233 234 235 236 236 237 237 238 238 239 240 241 243 244 245 247 248 250 252 253 255 257 258 260 262 263 265 266 267 268 269 271 272 273 274 275 276 277 278 279 280 281 282 283 284 285 286 288 289 290 291 292 293 294 295 296 298 299 300 301
227 225 225 225 225 225 225 225 225 225 225 225 226 226 226 226 227 227 228 229 229 229 230 230 231 232 233 234 235 235 236 237 237 238 239 239 240 241 243 244 245 247 248 250 251 252 254 256 257 259 261 262 263 265 266 267 268 269 270 271 273 274 275 276 277 278 280 281 282 283 284 285 286 288 289 290 291 292 293 294 295 296 298 299 300 301
229 227 226 226 225 226 226 226 226 226 226 226 226 226 226 226 227 227 228 229 229 230 230 231 231 232 233 234 235 235 236 237 237 238 239 239 240 241 243 244 245 247 248 249 251 252 254 255 257 258 260 261 262 264 265 266 267 268 269 271 272 273 274 276 277 278 279 280 282 283 284 285 286 287 288 289 290 291 292 294 295 296 297 299 300 301
232 230 228 227 226 226 226 226 226 227 228 228 228 227 226 226 227 227 228 229 229 230 230 231 231 232 233 234 235 236 236 237 237 238 239 239 240 241 243 244 245 246 248 249 250 252 253 255 256 257 259 260 261 263 264 265 266 268 269 270 271 272 274 275 276 278 279 280 281 282 284 285 286 287 288 289 290 291 292 293 295 296 297 298 299 300
234 232 230 228 228 227 227 227 227 228 229 229 230 229 228 227 227 228 228 229 229 230 230 231 232 232 233 235 235 236 237 238 238 239 239 240 240 241 242 243 245 246 248 249 250 252 253 254 256 257 258 259 261 262 263 264 266 267 268 269 271 272 274 275 276 277 279 280 281 282 283 284 285 286 287 288 290 291 292 293 294 296 297 298 299 300
235 234 232 230 229 229 228 228 228 228 229 230 230 230 229 228 228 228 228 229 229 230 230 231 231 232 234 235 236 237 237 238 239 239 240 240 241 241 242 243 244 246 247 248 250 251 252 253 255 256 257 258 260 261 262 264 265 266 268 269 271 272 273 275 276 277 278 280 281 282 283 284 285 286 287 288 289 290 292 293 294 295 297 298 299 300
237 235 234 232 231 230 230 229 229 229 229 229 230 230 230 229 229 228 228 229 229 230 230 231 231 232 233 234 236 237 238 239 239 240 240 241 242 242 242 243 244 245 246 248 249 250 252 253 254 255 257 258 259 260 262 263 264 266 267 269 270 272 273 274 275 277 278 279 280 281 282 283 284 285 286 287 289 290 292 293 294 295 296 297 298 299
238 237 235 234 232 232 231 231 230 230 230 230 230 231 231 230 229 229 228 229 229 230 231 231 232 232 233 234 236 237 238 239 240 240 241 242 243 243 243 244 244 245 246 247 249 250 251 252 253 255 256 257 259 260 261 262 264 265 267 268 269 271 272 273 275 276 277 278 279 280 281 282 284 285 286 287 289 290 291 293 294 295 296 297 298 299
239 237 236 235 234 232 232 232 232 232 231 231 231 232 232 232 231 230 229 229 230 230 231 232 232 233 234 235 236 237 238 239 240 240 242 243 243 244 244 245 245 246 246 247 249 250 251 252 253 254 256 257 258 260 261 262 263 265 266 268 269 270 272 273 274 275 276 277 279 280 281 282 283 284 286 287 288 290 291 292 294 295 296 297 298 299
239 238 237 236 235 233 232 232 232 232 232 232 232 232 233 233 232 231 230 230 230 231 232 232 233 234 234 235 236 237 238 239 240 241 242 243 244 244 245 246 246 247 247 248 249 250 251 252 253 254 255 257 258 259 261 262 263 264 266 267 268 270 271 272 273 275 276 277 278 279 281 282 283 284 286 287 288 290 291 292 293 294 296 297 298 300
240 239 238 237 236 234 233 233 232 232 232 232 232 233 234 234 234 233 232 231 231 232 232 233 234 234 235 236 237 238 238 239 240 241 242 243 244 245 246 246 247 248 248 249 249 250 251 252 254 255 256 257 258 259 260 262 263 264 266 267 268 269 271 272 273 274 276 277 278 279 280 282 283 284 285 287 288 289 291 292 293 294 296 297 299 300
241 240 238 237 236 235 235 234 233 232 232 232 232 233 234 235 235 234 233 233 232 232 233 233 234 235 235 236 237 238 239 239 240 241 242 243 244 245 246 247 248 248 249 250 250 251 252 253 254 255 256 257 258 259 260 262 263 264 265 267 268 269 270 272 273 274 275 276 278 279 280 281 283 284 285 287 288 289 290 292 293 295 296 298 299 301
243 241 239 238 237 236 235 235 234 233 233 233 233 233 234 235 235 235 234 234 233 233 233 234 234 234 235 236 237 238 238 239 240 240 241 242 243 245 246 247 247 248 249 250 251 251 252 253 254 255 256 257 258 259 260 261 263 264 265 266 267 269 270 271 272 274 275 276 277 279 280 281 283 284 285 286 288 289 290 292 293 295 297 298 300 301
244 242 239 238 237 236 236 235 235 235 234 234 233 233 234 235 235 235 235 235 234 234 234 234 234 235 235 236 236 237 238 238 239 240 240 241 243 244 245 246 247 248 249 250 251 251 252 253 254 255 256 257 258 259 260 261 262 264 265 266 267 268 269 271 272 273 275 276 277 279 280 281 282 284 285 286 288 289 291 292 294 296 297 299 300 301
245 242 240 238 237 236 236 236 235 235 235 235 234 234 234 234 235 235 235 235 235 235 235 235 235 235 235 236 236 237 238 238 239 239 240 241 242 243 244 245 246 247 248 249 250 251 252 253 254 255 256 257 258 259 260 261 262 263 265 266 267 268 269 270 272 273 274 276 277 278 280 281 282 284 285 286 288 290 291 293 295 296 298 299 300 302
247 243 241 238 236 235 235 235 235 235 235 235 235 234 234 234 235 235 236 236 236 235 236 236 236 236 236 236 237 237 238 239 239 240 240 241 242 242 243 245 246 247 248 249 250 251 252 253 254 255 256 257 258 259 260 261 262 263 264 265 266 267 269 270 271 273 274 276 277 278 279 281 282 284 285 287 289 291 292 294 295 297 298 300 301 302
249 245 242 239 237 235 234 234 235 235 235 235 235 235 234 235 235 235 236 236 236 236 236 237 237 236 236 236 237 237 238 239 240 240 241 242 242 243 244 245 246 247 248 249 250 251 252 253 254 255 256 257 258 259 260 261 262 263 264 265 266 267 269 270 271 273 274 275 277 278 279 281 283 284 286 288 290 292 293 295 296 298 299 300 302 303
250 247 244 241 238 236 234 234 234 234 234 235 235 234 234 235 235 236 236 236 236 237 237 237 238 238 237 237 237 238 238 239 240 241 242 242 243 244 244 245 246 247 248 249 250 250 252 253 254 255 256 257 258 259 260 261 262 263 264 265 266 268 269 270 271 273 274 275 277 279 280 282 283 285 287 289 291 292 294 295 297 298 300 301 303 304
251 249 246 242 239 236 235 234 233 233 233 234 234 234 234 235 235 236 236 237 237 237 238 238 239 239 239 239 238 239 239 240 241 241 242 243 244 245 245 246 247 247 248 249 250 251 252 252 253 254 255 256 257 258 259 260 262 263 264 265 267 268 269 270 272 273 275 276 278 279 281 283 285 286 288 290 292 293 295 296 298 299 301 302 303 305
251 249 247 244 241 238 235 234 233 232 233 233 233 234 234 234 235 236 236 237 237 238 238 239 240 240 240 240 240 240 240 241 241 242 243 244 245 245 246 247 248 248 249 250 251 251 252 253 254 255 255 256 257 258 259 261 262 263 264 266 267 269 270 271 273 274 276 277 279 280 282 284 286 288 289 291 293 294 296 297 299 300 301 303 304 305
250 249 247 245 242 239 237 234 233 232 232 232 232 233 234 234 235 236 237 237 238 238 239 239 240 241 241 242 242 242 242 242 242 243 244 244 245 246 247 248 248 249 250 251 252 252 253 254 255 255 256 257 258 259 260 261 263 264 265 267 268 269 271 272 274 275 277 278 280 282 284 285 287 289 291 292 294 296 297 299 300 301 302 303 304 305
249 248 247 246 244 241 238 235 233 232 231 231 232 232 233 234 235 236 237 238 238 238 239 240 240 241 242 242 243 243 243 244 244 244 245 245 246 247 247 248 249 250 251 251 252 253 254 255 255 256 257 258 259 260 261 263 264 265 266 268 269 270 272 273 275 276 278 280 281 283 285 287 289 290 292 294 295 297 298 300 300 301 302 303 304 306
248 247 247 246 244 242 239 236 234 232 231 231 231 232 233 234 235 236 237 238 238 239 239 240 240 241 242 242 243 244 244 245 245 245 246 246 247 247 248 249 249 250 251 252 253 253 254 255 256 257 258 259 260 261 262 263 265 266 267 269 270 271 273 274 276 278 279 281 283 285 286 288 290 292 294 295 297 298 299 300 301 302 303 304 305 306
246 246 245 245 244 242 240 238 235 233 232 231 231 232 232 233 234 235 236 237 238 239 239 240 240 241 241 242 243 244 244 245 246 246 247 247 248 249 249 250 251 251 252 253 254 254 255 256 256 257 258 259 260 261 262 264 265 266 268 269 271 272 274 275 277 279 281 283 285 286 288 290 292 293 295 296 297 298 299 300 301 302 303 304 305 306
245 245 244 244 243 242 241 239 237 234 233 232 231 231 232 233 234 235 236 237 238 239 239 240 240 240 241 242 242 243 244 245 246 247 247 248 249 250 251 251 252 253 254 255 256 257 257 258 258 259 260 261 262 263 264 265 266 268 269 271 272 274 276 277 279 281 283 285 286 288 290 291 293 294 295 296 297 298 299 300 301 302 303 304 305 306
244 244 243 243 242 241 241 239 237 235 234 232 232 232 232 233 233 234 235 236 237 238 239 240 240 241 241 241 242 243 243 244 245 246 247 248 249 250 251 252 253 255 256 257 258 259 260 261 261 262 263 264 265 266 266 268 269 270 272 273 275 277 278 280 281 283 285 286 288 289 291 292 293 294 295 296 297 298 299 300 301 302 303 303 304 305
243 243 242 242 241 241 240 239 238 236 235 233 233 232 233 233 233 234 234 236 236 237 238 239 240 240 241 241 242 242 243 244 245 246 247 248 249 250 251 252 253 254 256 258 259 261 262 263 264 264 265 266 268 269 270 271 272 273 275 276 278 279 281 282 283 285 286 287 288 289 290 291 292 293 294 296 297 298 299 300 301 301 302 302 303 303
242 242 241 241 240 240 239 239 238 237 235 234 234 233 233 233 234 234 234 235 236 236 237 238 239 240 240 241 242 242 242 243 244 245 246 247 248 249 250 251 252 253 255 256 258 259 261 263 264 265 266 267 269 270 272 273 274 275 276 278 279 280 282 283 284 285 286 287 288 289 290 291 292 293 295 296 297 298 298 299 300 300 300 301 302 302
241 241 240 239 239 239 239 238 237 237 236 235 234 234 234 234 234 234 235 235 235 236 236 237 238 239 239 240 241 242 242 243 244 244 245 246 247 248 249 250 251 252 253 254 256 257 258 260 262 263 265 267 268 269 271 272 274 275 276 278 279 280 281 282 283 284 285 286 287 288 290 291 292 293 294 295 296 296 297 298 298 298 299 300 301 301
Height
10543 10547 10551 10555 10559 10563 10567 10570 10573 10575 10576 10578 10581 10585 10588 10592 10595 10596 10597 10598 10600 10602 10606 10610 10613 10616 10618 10620 10622 10625 10627 10628 10630 10632 10633 10635 10637 10639 10640 10640 10639 10638 10637 10638 10638 10639 10640 10642 10643 10644 10645 10646 10646 10647 10647 10647 10647 10647 10648 10648 10650 10650 10651 10651 10652 10652 10651 10651 10650 10649 10648 10647 10647 10645 10644 10643 10641 10639 10637 10635 10632 10630 10629 10628 10627 10626
10542 10545 10549 10552 10555 10558 10562 10566 10568 10569 10570 10573 10577 10582 10585 10588 10590 10591 10593 10594 10596 10598 10602 10606 10609 10612 10615 10617 10620 10622 10624 10626 10628 10629 10631 10633 10635 10636 10637 10637 10636 10635 10635 10635 10635 10637 10637 10638 10640 10640 10641 10642 10642 10643 10643 10643 10644 10645 10645 10647 10647 10648 10648 10648 10648 10648 10648 10647 10647 10646 10645 10644 10643 10642 10640 10639 10637 10635 10633 10630 10628 10627 10627 10625 10624 10622
10538 10542 10546 10549 10552 10553 10556 10558 10560 10563 10566 10570 10575 10580 10583 10585 10587 10588 10588 10590 10592 10595 10599 10602 10605 10608 10612 10615 10617 10620 10622 10623 10625 10627 10628 10630 10632 10633 10634 10634 10633 10632 10632 10632 10632 10633 10635 10635 10636 10637 10637 10638 10638 10639 10640 10640 10642 10642 10643 10643 10644 10645 10645 10645 10646 10645 10645 10644 10643 10642 10641 10640 10639 10638 10636 10635 10633 10631 10628 10627 10625 10624 10623 10623 10621 10618
10535 10538 10542 10545 10548 10550 10552 10553 10557 10560 10564 10569 10574 10578 10582 10583 10584 10585 10585 10587 10589 10592 10596 10599 10602 10606 10609 10613 10616 10618 10620 10622 10623 10624 10626 10628 10629 10630 10632 10631 10630 10628 10628 10628 10630 10630 10631 10632 10632 10633 10633 10635 10635 10636 10637 10638 10638 10640 10640 10640 10641 10642 10642 10643 10643 10642 10642 10640 10639 10638 10637 10637 10635 10633 10632 10630 10628 10627 10625 10623 10622 10622 10620 10619 10617 10615
10532 10535 10538 10541 10544 10547 10549 10552 10555 10558 10562 10567 10572 10575 10578 10580 10581 10582 10583 10584 10587 10590 10593 10597 10600 10604 10608 10612 10614 10617 10618 10619 10620 10622 10623 10625 10627 10628 10628 10627 10626 10625 10625 10626 10627 10627 10628 10628 10629 10630 10630 10631 10632 10633 10634 10635 10636 10636 10637 10637 10638 10639 10640 10640 10639 10638 10638 10637 10635 10635 10633 10632 10631 10630 10628 10626 10624 10623 10621 10620 10619 10618 10617 10615 10613 10611
10529 10532 10535 10537 10540 10543 10546 10550 10553 10556 10560 10564 10568 10572 10575 10577 10578 10579 10581 10583 10585 10587 10590 10595 10598 10603 10607 10610 10612 10614 10615 10617 10618 10620 10621 10622 10623 10625 10625 10623 10622 10622 10622 10623 10623 10624 10625 10625 10626 10627 10627 10628 10629 10630 10631 10632 10632 10633 10633 10634 10635 10636 10637 10637 10636 10635 10633 10633 10632 10631 10630 10628 10627 10625 10624 10622 10620 10619 10617 10617 10616 10615 10613 10612 10610 10607
10526 10529 10532 10534 10536 10538 10542 10546 10549 10553 10557 10560 10563 10567 10570 10573 10575 10577 10578 10580 10582 10585 10588 10592 10597 10602 10605 10608 10610 10612 10613 10614 10615 10617 10618 10620 10620 10621 10620 10620 10618 10618 10619 10620 10621 10621 10622 10622 10623 10623 10624 10625 10626 10627 10627 10628 10628 10629 10630 10631 10632 10633 10633 10633 10632 10631 10630 10629 10628 10627 10626 10625 10623 10622 10620 10618 10617 10615 10614 10613 10613 10611 10610 10608 10606 10603
10523 10526 10529 10531 10533 10536 10539 10542 10546 10550 10553 10557 10560 10563 10567 10569 10571 10573 10575 10578 10580 10583 10586 10590 10595 10599 10603 10605 10608 10609 10610 10612 10613 10614 10615 10616 10617 10617 10617 10616 10615 10615 10617 10618 10618 10618 10618 10618 10619 10620 10621 10622 10622 10623 10623 10623 10625 10626 10627 10628 10629 10630 10630 10629 10628 10627 10626 10625 10624 10623 10622 10621 10619 10618 10616 10615 10613 10612 10611 10610 10609 10607 10606 10604 10602 10600
10518 10522 10525 10527 10530 10532 10535 10538 10542 10546 10550 10553 10556 10559 10562 10565 10568 10570 10573 10577 10578 10581 10583 10587 10592 10596 10599 10602 10604 10606 10607 10608 10609 10610 10611 10612 10613 10613 10613 10612 10612 10613 10614 10615 10615 10615 10615 10615 10616 10617 10618 10618 10618 10618 10619 10620 10621 10623 10625 10625 10626 10626 10626 10625 10624 10623 10622 10622 10620 10620 10618 10617 10615 10614 10612 10611 10609 10608 10608 10607 10605 10603 10602 10600 10598 10596
10515 10518 10520 10523 10525 10528 10532 10535 10538 10542 10545 10549 10552 10555 10558 10562 10565 10568 10572 10574 10576 10578 10582 10585 10588 10592 10595 10598 10601 10603 10604 10605 10605 10607 10608 10608 10609 10609 10609 10608 10609 10610 10612 10612 10613 10612 10612 10612 10613 10613 10615 10615 10614 10614 10615 10616 10618 10620 10622 10622 10622 10622 10622 10621 10620 10619 10618 10618 10617 10616 10615 10613 10612 10610 10608 10607 10606 10605 10605 10603 10602 10600 10598 10597 10594 10592
10513 10515 10517 10520 10523 10525 10528 10531 10534 10537 10542 10545 10549 10553 10557 10559 10562 10565 10568 10570 10572 10575 10579 10582 10585 10588 10592 10595 10597 10598 10600 10601 10602 10603 10604 10605 10605 10605 10605 10605 10606 10607 10608 10610 10610 10610 10609 10609 10610 10610 10610 10610 10610 10610 10612 10613 10616 10618 10618 10618 10618 10618 10617 10617 10617 10616 10615 10614 10613 10612 10610 10609 10607 10606 10605 10603 10603 10602 10601 10600 10598 10596 10595 10592 10590 10587
10510 10513 10515 10518 10520 10523 10526 10528 10531 10534 10538 10542 10545 10550 10553 10556 10558 10561 10563 10565 10568 10572 10575 10578 10582 10586 10589 10591 10593 10595 10596 10597 10598 10599 10600 10601 10601 10601 10602 10602 10603 10605 10606 10607 10607 10607 10606 10606 10607 10607 10607 10607 10607 10607 10608 10610 10613 10614 10615 10615 10615 10614 10613 10613 10613 10612 10611 10610 10609 10608 10606 10605 10603 10602 10601 10600 10600 10598 10597 10596 10594 10592 10590 10588 10586 10583
10508 10511 10513 10516 10518 10521 10523 10525 10528 10532 10535 10538 10541 10544 10547 10550 10553 10557 10559 10562 10564 10568 10572 10575 10579 10583 10585 10587 10589 10590 10592 10593 10593 10595 10596 10597 10597 10597 10598 10600 10601 10602 10603 10603 10603 10603 10603 10603 10603 10603 10603 10603 10603 10604 10606 10608 10609 10610 10610 10610 10610 10610 10610 10610 10609 10608 10607 10606 10605 10603 10602 10600 10599 10598 10598 10597 10597 10595 10593 10592 10590 10588 10586 10584 10582 10579
10507 10510 10512 10514 10516 10518 10520 10523 10525 10528 10531 10533 10537 10539 10542 10545 10550 10553 10556 10559 10562 10565 10569 10573 10577 10578 10581 10583 10585 10587 10588 10588 10589 10590 10592 10592 10593 10594 10596 10597 10598 10599 10600 10600 10600 10600 10600 10600 10600 10600 10600 10600 10600 10601 10603 10604 10605 10605 10606 10606 10606 10606 10606 10605 10605 10603 10602 10601 10600 10598 10597 10597 10596 10595 10595 10594 10593 10591 10590 10588 10586 10584 10582 10580 10577 10575
10504 10507 10510 10512 10513 10516 10518 10520 10523 10525 10527 10530 10533 10537 10540 10544 10547 10550 10553 10556 10560 10563 10567 10571 10573 10574 10577 10579 10581 10583 10583 10583 10584 10585 10587 10588 10589 10591 10593 10594 10595 10596 10597 10597 10596 10595 10596 10597 10597 10597 10597 10597 10597 10598 10599 10600 10601 10602 10602 10602 10602 10602 10602 10602 10600 10599 10598 10597 10595 10595 10593 10593 10592 10592 10592 10590 10589 10587 10586 10584 10582 10580 10578 10575 10573 10572
10500 10503 10506 10510 10512 10513 10515 10517 10520 10522 10525 10528 10531 10534 10538 10542 10544 10547 10552 10555 10558 10561 10565 10567 10569 10570 10572 10573 10575 10577 10578 10579 10580 10581 10583 10584 10586 10588 10590 10591 10592 10592 10593 10592 10592 10592 10592 10593 10593 10593 10593 10593 10593 10595 10595 10597 10597 10598 10598 10598 10598 10598 10598 10597 10596 10595 10593 10593 10592 10591 10590 10590 10590 10588 10588 10587 10585 10583 10582 10580 10578 10576 10573 10572 10570 10568
10497 10500 10502 10505 10508 10511 10513 10515 10517 10519 10522 10525 10528 10530 10533 10537 10540 10545 10549 10552 10554 10557 10560 10561 10563 10565 10566 10568 10570 10572 10573 10575 10576 10577 10579 10580 10582 10583 10586 10587 10588 10588 10588 10588 10588 10588 10588 10589 10590 10590 10590 10590 10590 10591 10592 10593 10593 10594 10595 10595 10595 10595 10594 10593 10592 10591 10590 10589 10588 10588 10587 10587 10586 10585 10584 10583 10581 10580 10578 10576 10574 10572 10570 10568 10567 10564
10493 10495 10497 10501 10504 10507 10508 10511 10513 10516 10518 10522 10525 10527 10530 10533 10537 10541 10545 10546 10548 10551 10553 10555 10558 10559 10561 10563 10564 10566 10569 10571 10572 10572 10574 10576 10577 10578 10582 10583 10584 10585 10585 10585 10585 10585 10585 10585 10585 10586 10587 10587 10587 10588 10589 10590 10590 10591 10592 10592 10591 10590 10590 10588 10588 10587 10586 10585 10585 10585 10584 10583 10583 10582 10580 10579 10577 10576 10574 10572 10570 10568 10567 10565 10563 10561
10489 10492 10494 10496 10498 10501 10504 10507 10509 10512 10515 10518 10520 10523 10527 10529 10532 10536 10538 10541 10543 10545 10548 10551 10553 10555 10557 10558 10558 10560 10564 10567 10567 10568 10570 10571 10573 10575 10577 10580 10580 10581 10582 10582 10582 10582 10582 10582 10582 10582 10583 10583 10584 10585 10586 10587 10587 10588 10588 10588 10587 10586 10585 10585 10584 10583 10583 10582 10582 10582 10581 10580 10579 10578 10577 10575 10573 10572 10570 10568 10567 10565 10563 10562 10560 10558
10486 10488 10490 10492 10493 10497 10502 10503 10505 10508 10510 10513 10516 10519 10522 10525 10528 10532 10534 10537 10538 10541 10543 10547 10548 10550 10552 10553 10555 10556 10559 10562 10563 10565 10566 10567 10569 10571 10573 10575 10577 10577 10578 10578 10578 10579 10579 10579 10579 10579 10580 10580 10581 10582 10583 10583 10583 10584 10584 10583 10583 10582 10582 10581 10580 10580 10580 10579 10578 10578 10577 10577 10575 10574 10573 10571 10570 10568 10567 10565 10563 10562 10560 10558 10556 10554
10482 10484 10486 10488 10490 10493 10496 10500 10503 10505 10508 10510 10513 10516 10518 10521 10524 10527 10529 10531 10534 10537 10540 10543 10544 10545 10547 10549 10550 10552 10554 10558 10560 10561 10562 10564 10566 10568 10570 10572 10573 10574 10575 10575 10575 10576 10577 10577 10576 10576 10577 10577 10578 10578 10580 10580 10580 10580 10580 10579 10579 10578 10578 10577 10577 10577 10577 10576 10575 10575 10573 10573 10572 10570 10569 10568 10567 10565 10563 10562 10560 10558 10557 10555 10553 10551
10479 10481 10483 10485 10487 10489 10491 10495 10500 10504 10507 10508 10510 10512 10513 10517 10519 10522 10523 10526 10529 10532 10535 10538 10539 10541 10543 10545 10546 10548 10551 10554 10556 10557 10558 10561 10563 10564 10566 10568 10570 10571 10571 10571 10572 10573 10573 10573 10573 10573 10574 10574 10575 10576 10576 10577 10577 10577 10576 10576 10575 10575 10575 10574 10574 10573 10573 10573 10572 10571 10570 10569 10568 10567 10565 10564 10563 10562 10560 10558 10557 10555 10553 10552 10550 10548
10476 10478 10480 10482 10483 10486 10488 10492 10497 10502 10504 10505 10505 10505 10507 10510 10513 10515 10517 10520 10523 10527 10530 10533 10535 10537 10539 10541 10542 10544 10547 10550 10552 10553 10556 10558 10559 10560 10562 10565 10566 10567 10567 10567 10568 10569 10570 10570 10570 10571 10571 10572 10572 10573 10573 10573 10573 10573 10573 10572 10572 10572 10572 10571 10571 10570 10570 10569 10568 10567 10566 10565 10564 10563 10562 10561 10560 10558 10557 10555 10553 10552 10550 10548 10547 10545
10473 10475 10477 10478 10480 10482 10485 10488 10492 10496 10498 10498 10498 10499 10502 10505 10508 10511 10513 10516 10519 10522 10526 10529 10532 10534 10535 10536 10537 10540 10542 10545 10547 10550 10552 10554 10555 10555 10558 10560 10562 10562 10562 10563 10564 10565 10566 10567 10567 10568 10568 10568 10569 10569 10570 10570 10570 10570 10569 10569 10568 10568 10568 10568 10568 10567 10567 10566 10565 10563 10563 10562 10560 10560 10558 10558 10556 10555 10553 10552 10550 10548 10547 10545 10543 10542
10470 10472 10473 10475 10477 10478 10481 10483 10485 10488 10491 10491 10492 10493 10497 10500 10503 10507 10510 10513 10516 10519 10522 10525 10528 10529 10529 10530 10533 10535 10537 10539 10543 10546 10548 10549 10550 10552 10553 10555 10557 10558 10558 10558 10560 10562 10562 10563 10563 10565 10565 10565 10566 10566 10566 10566 10566 10566 10566 10565 10565 10565 10565 10565 10564 10564 10563 10562 10561 10560 10559 10558 10557 10557 10555 10554 10553 10552 10550 10548 10547 10545 10544 10542 10540 10538
10466 10468 10470 10472 10473 10475 10477 10478 10480 10482 10484 10485 10487 10490 10493 10497 10500 10503 10506 10508 10511 10514 10518 10520 10522 10523 10523 10526 10528 10530 10531 10535 10538 10541 10543 10545 10546 10547 10548 10550 10553 10554 10554 10555 10556 10558 10559 10560 10560 10561 10562 10562 10562 10562 10562 10562 10562 10562 10562 10562 10562 10562 10562 10562 10561 10560 10560 10558 10558 10557 10556 10555 10554 10553 10552 10551 10550 10548 10547 10545 10544 10542 10541 10539 10537 10535
10462 10464 10467 10468 10469 10470 10472 10474 10476 10478 10480 10482 10484 10487 10490 10494 10497 10500 10502 10503 10506 10509 10513 10515 10517 10518 10520 10522 10523 10525 10527 10530 10533 10535 10538 10540 10542 10542 10543 10545 10548 10550 10550 10551 10552 10554 10555 10556 10556 10557 10558 10558 10558 10558 10558 10558 10558 10558 10558 10558 10558 10558 10558 10558 10557 10557 10556 10555 10554 10553 10552 10552 10551 10550 10548 10547 10546 10545 10543 10542 10541 10539 10538 10535 10533 10531
10457 10459 10462 10464 10466 10467 10468 10470 10472 10474 10476 10478 10480 10483 10486 10489 10492 10494 10496 10498 10501 10505 10508 10510 10511 10513 10515 10517 10517 10519 10522 10525 10527 10530 10532 10535 10537 10538 10538 10542 10544 10546 10547 10547 10548 10550 10551 10552 10552 10553 10553 10553 10554 10554 10555 10555 10555 10555 10555 10555 10555 10555 10555 10555 10554 10553 10552 10552 10551 10550 10549 10548 10547 10547 10545 10544 10543 10542 10540 10539 10538 10536 10534 10532 10530 10527
10452 10455 10457 10460 10462 10464 10465 10467 10469 10471 10472 10474 10476 10478 10480 10483 10486 10488 10490 10493 10497 10500 10502 10504 10506 10508 10510 10511 10512 10515 10518 10520 10522 10525 10528 10531 10532 10533 10534 10538 10540 10542 10543 10543 10544 10545 10547 10547 10548 10548 10549 10549 10550 10550 10551 10551 10551 10552 10552 10552 10552 10552 10552 10551 10550 10550 10549 10548 10547 10547 10546 10545 10544 10543 10542 10541 10540 10539 10537 10536 10535 10533 10531 10528 10527 10524
10448 10450 10452 10455 10458 10460 10462 10464 10467 10468 10470 10471 10472 10474 10476 10478 10481 10483 10486 10490 10493 10495 10497 10498 10501 10503 10504 10507 10509 10512 10514 10515 10518 10520 10524 10527 10527 10528 10530 10533 10535 10537 10538 10539 10540 10540 10541 10542 10543 10544 10545 10545 10546 10547 10547 10547 10548 10548 10548 10548 10548 10548 10548 10548 10547 10546 10545 10545 10543 10543 10542 10542 10540 10540 10538 10538 10537 10535 10534 10533 10531 10529 10527 10525 10523 10521
10444 10446 10448 10450 10453 10456 10458 10461 10463 10465 10467 10468 10470 10471 10472 10474 10477 10480 10483 10486 10488 10490 10492 10494 10496 10498 10500 10502 10505 10507 10508 10510 10513 10517 10520 10522 10522 10523 10526 10529 10530 10531 10533 10535 10536 10536 10537 10537 10538 10540 10541 10542 10542 10543 10543 10543 10544 10544 10545 10545 10545 10545 10545 10544 10543 10543 10542 10541 10540 10540 10539 10538 10537 10536 10535 10535 10533 10532 10530 10529 10528 10526 10524 10522 10520 10517
10440 10442 10443 10446 10448 10451 10453 10456 10458 10460 10462 10464 10466 10468 10470 10471 10473 10476 10479 10482 10484 10487 10488 10490 10492 10493 10495 10498 10501 10502 10503 10506 10509 10513 10516 10517 10518 10519 10522 10525 10525 10526 10528 10530 10532 10532 10533 10533 10533 10535 10537 10538 10538 10538 10539 10540 10540 10540 10541 10541 10541 10541 10540 10540 10540 10539 10538 10537 10537 10536 10535 10535 10533 10533 10532 10531 10530 10528 10527 10525 10524 10522 10520 10518 10516 10514
10436 10438 10440 10442 10444 10447 10448 10451 10453 10456 10458 10460 10462 10464 10466 10467 10470 10472 10476 10478 10481 10483 10484 10485 10487 10489 10492 10494 10497 10498 10500 10503 10506 10509 10512 10513 10514 10515 10517 10520 10521 10522 10523 10525 10527 10528 10529 10529 10529 10530 10532 10533 10534 10535 10535 10536 10537 10537 10537 10537 10537 10537 10537 10537 10536 10535 10534 10533 10533 10532 10532 10531 10530 10530 10528 10527 10527 10525 10523 10522 10520 10519 10517 10515 10513 10511
10432 10434 10436 10438 10440 10442 10444 10446 10448 10451 10453 10455 10457 10460 10462 10463 10466 10468 10472 10475 10477 10478 10480 10481 10482 10485 10487 10490 10492 10494 10497 10500 10502 10505 10507 10509 10510 10511 10512 10515 10516 10517 10518 10520 10522 10523 10524 10525 10525 10526 10527 10528 10529 10530 10531 10532 10532 10532 10533 10533 10533 10533 10532 10532 10532 10531 10530 10530 10529 10528 10528 10528 10527 10526 10525 10524 10523 10522 10520 10518 10517 10515 10514 10512 10510 10507
10428 10430 10432 10433 10435 10438 10440 10442 10444 10446 10448 10451 10453 10455 10457 10460 10462 10464 10467 10470 10472 10473 10475 10476 10478 10480 10482 10485 10487 10490 10492 10494 10497 10500 10503 10505 10505 10506 10508 10510 10510 10512 10513 10515 10516 10518 10519 10520 10521 10522 10523 10523 10525 10525 10527 10527 10528 10528 10528 10529 10529 10529 10528 10528 10528 10527 10527 10526 10525 10525 10525 10524 10523 10522 10521 10520 10519 10518 10517 10515 10514 10512 10510 10508 10507 10504
10425 10426 10427 10429 10431 10433 10435 10438 10440 10442 10443 10446 10448 10451 10453 10455 10458 10460 10462 10465 10467 10469 10470 10472 10474 10476 10478 10480 10482 10485 10487 10489 10492 10495 10498 10499 10500 10502 10503 10504 10505 10507 10509 10510 10511 10512 10514 10515 10516 10517 10519 10520 10520 10520 10522 10523 10523 10525 10525 10525 10525 10525 10525 10524 10524 10523 10523 10522 10522 10522 10521 10520 10520 10518 10518 10517 10515 10515 10513 10512 10511 10509 10507 10505 10503 10500
10421 10422 10423 10425 10427 10429 10431 10433 10435 10437 10439 10442 10444 10447 10450 10452 10453 10455 10457 10460 10462 10464 10466 10467 10469 10472 10473 10476 10478 10480 10482 10485 10487 10490 10492 10493 10495 10497 10498 10498 10500 10502 10504 10505 10506 10507 10509 10510 10512 10513 10515 10515 10516 10516 10517 10518 10519 10520 10520 10520 10521 10521 10520 10520 10520 10520 10519 10518 10518 10518 10517 10517 10516 10515 10514 10513 10512 10512 10510 10509 10507 10505 10503 10501 10498 10496
10417 10418 10420 10421 10423 10425 10427 10428 10431 10433 10435 10437 10440 10442 10445 10447 10448 10450 10452 10455 10457 10459 10461 10463 10464 10467 10469 10472 10474 10477 10478 10480 10483 10484 10486 10488 10490 10492 10493 10494 10495 10497 10499 10500 10502 10503 10505 10506 10507 10508 10510 10510 10512 10512 10513 10514 10515 10515 10516 10516 10517 10517 10517 10517 10516 10516 10515 10515 10515 10514 10513 10513 10513 10512 10511 10510 10509 10508 10507 10505 10503 10502 10499 10497 10495 10492
10412 10414 10415 10417 10418 10420 10422 10424 10426 10428 10431 10433 10435 10438 10440 10442 10444 10445 10448 10450 10452 10454 10456 10458 10459 10462 10464 10467 10470 10472 10474 10476 10478 10479 10481 10483 10485 10487 10488 10490 10491 10493 10494 10496 10498 10499 10500 10502 10503 10504 10505 10506 10507 10508 10509 10510 10510 10511 10511 10512 10512 10513 10512 10512 10512 10512 10512 10512 10511 10510 10510 10510 10509 10508 10508 10507 10506 10505 10503 10501 10499 10497 10495 10493 10490 10488
10408 10410 10411 10413 10414 10416 10418 10420 10422 10424 10427 10428 10431 10433 10436 10438 10440 10441 10443 10445 10447 10450 10451 10453 10455 10457 10460 10462 10465 10468 10470 10472 10473 10475 10477 10478 10480 10482 10484 10486 10487 10488 10490 10492 10493 10495 10496 10497 10498 10500 10501 10502 10503 10503 10504 10505 10506 10507 10507 10508 10508 10508 10508 10508 10508 10508 10508 10508 10507 10507 10507 10506 10506 10505 10505 10503 10502 10501 10499 10497 10495 10493 10491 10489 10487 10484
10403 10405 10406 10408 10410 10412 10413 10415 10418 10420 10422 10424 10427 10428 10431 10433 10435 10437 10438 10440 10443 10445 10447 10448 10450 10453 10455 10458 10460 10463 10465 10467 10469 10471 10473 10474 10476 10478 10480 10481 10483 10484 10486 10487 10489 10490 10492 10493 10495 10495 10497 10498 10498 10499 10500 10500 10502 10502 10503 10504 10503 10503 10503 10504 10504 10504 10504 10504 10503 10503 10503 10503 10502 10502 10501 10500 10498 10497 10495 10493 10491 10489 10487 10485 10483 10481
10398 10399 10401 10403 10405 10408 10409 10412 10413 10416 10418 10420 10422 10423 10425 10427 10429 10431 10433 10435 10437 10440 10442 10444 10447 10448 10451 10453 10456 10458 10461 10463 10465 10467 10468 10470 10472 10473 10475 10477 10478 10480 10482 10483 10485 10486 10488 10489 10490 10492 10492 10493 10495 10495 10496 10497 10497 10498 10500 10500 10500 10500 10500 10500 10500 10500 10500 10500 10500 10500 10500 10500 10498 10498 10497 10495 10494 10492 10491 10489 10487 10485 10483 10481 10479 10477
10392 10394 10396 10398 10401 10403 10405 10407 10409 10411 10413 10415 10417 10418 10420 10422 10425 10426 10428 10430 10432 10434 10437 10439 10442 10444 10447 10449 10452 10454 10457 10458 10460 10462 10464 10466 10468 10469 10471 10472 10473 10475 10478 10479 10481 10482 10483 10485 10487 10487 10488 10489 10491 10492 10492 10493 10493 10495 10495 10496 10497 10497 10497 10495 10495 10497 10497 10497 10497 10497 10496 10495 10495 10493 10492 10491 10490 10488 10487 10485 10483 10481 10479 10478 10475 10473
10387 10389 10392 10394 10397 10399 10401 10402 10404 10405 10407 10409 10412 10413 10415 10418 10420 10422 10423 10425 10427 10429 10432 10435 10437 10440 10442 10445 10447 10449 10452 10453 10455 10458 10460 10461 10463 10465 10466 10468 10469 10471 10473 10475 10477 10478 10479 10481 10482 10483 10484 10485 10487 10488 10488 10489 10490 10490 10491 10492 10493 10493 10492 10492 10492 10492 10493 10492 10492 10492 10492 10492 10490 10489 10488 10487 10485 10484 10482 10481 10479 10477 10475 10474 10472 10470
10382 10385 10387 10389 10392 10393 10395 10397 10398 10400 10403 10405 10407 10408 10410 10413 10415 10417 10418 10420 10422 10425 10427 10430 10433 10436 10438 10440 10442 10445 10447 10449 10451 10453 10455 10456 10458 10460 10461 10463 10465 10467 10468 10470 10472 10473 10475 10476 10477 10478 10480 10482 10483 10483 10484 10485 10486 10487 10487 10488 10488 10488 10488 10488 10488 10488 10488 10488 10488 10488 10487 10487 10486 10485 10483 10482 10481 10480 10478 10477 10475 10473 10472 10470 10468 10467
10377 10380 10382 10383 10386 10388 10390 10392 10394 10396 10398 10400 10402 10403 10405 10408 10410 10412 10413 10415 10418 10420 10423 10425 10429 10432 10433 10435 10438 10440 10443 10445 10447 10448 10450 10452 10453 10455 10457 10458 10460 10462 10464 10465 10467 10468 10470 10472 10473 10474 10476 10477 10478 10479 10480 10481 10482 10483 10483 10484 10484 10485 10484 10484 10484 10485 10484 10484 10483 10483 10483 10482 10482 10480 10479 10478 10477 10475 10474 10473 10472 10470 10468 10467 10465 10463
10372 10374 10376 10378 10381 10383 10385 10387 10389 10392 10393 10395 10397 10398 10400 10403 10405 10407 10408 10411 10413 10415 10418 10421 10425 10427 10428 10431 10433 10437 10438 10440 10442 10443 10445 10447 10448 10450 10452 10454 10456 10458 10460 10461 10462 10463 10465 10467 10468 10470 10472 10473 10473 10474 10475 10477 10478 10479 10479 10480 10480 10480 10480 10480 10480 10480 10480 10480 10480 10479 10478 10478 10477 10476 10475 10474 10473 10472 10470 10469 10468 10467 10465 10463 10461 10459
10367 10369 10371 10373 10375 10378 10380 10382 10384 10386 10388 10390 10392 10393 10396 10398 10400 10402 10404 10406 10408 10412 10414 10417 10420 10422 10424 10427 10429 10432 10433 10435 10437 10439 10442 10443 10445 10447 10448 10451 10453 10455 10456 10457 10458 10459 10460 10462 10463 10465 10467 10468 10468 10470 10470 10472 10473 10474 10475 10475 10475 10475 10475 10475 10475 10475 10475 10475 10475 10475 10475 10474 10473 10472 10472 10470 10469 10468 10467 10465 10464 10463 10462 10460 10458 10457
10361 10363 10365 10368 10370 10372 10375 10377 10379 10381 10383 10385 10387 10389 10392 10393 10395 10398 10400 10402 10405 10407 10410 10412 10415 10417 10420 10422 10425 10427 10430 10432 10433 10435 10438 10440 10442 10443 10446 10448 10450 10452 10453 10454 10455 10455 10457 10458 10459 10460 10462 10463 10464 10465 10466 10467 10468 10469 10470 10470 10470 10470 10470 10470 10470 10471 10471 10471 10471 10471 10471 10470 10470 10469 10468 10467 10465 10464 10463 10462 10460 10459 10458 10457 10455 10453
10355 10358 10360 10362 10365 10367 10370 10372 10374 10377 10378 10380 10383 10385 10387 10389 10391 10393 10395 10398 10400 10403 10405 10408 10410 10413 10415 10418 10420 10423 10426 10428 10430 10432 10434 10436 10438 10440 10442 10444 10447 10448 10450 10451 10452 10453 10453 10454 10455 10456 10457 10459 10460 10461 10462 10463 10464 10465 10466 10466 10467 10467 10467 10467 10467 10467 10467 10467 10467 10467 10467 10467 10466 10465 10465 10463 10462 10460 10460 10458 10457 10456 10455 10453 10452 10450
10350 10352 10354 10357 10359 10362 10364 10367 10370 10372 10374 10376 10378 10381 10383 10385 10387 10389 10392 10394 10397 10398 10401 10403 10406 10408 10410 10413 10416 10418 10421 10423 10426 10428 10430 10432 10433 10436 10438 10440 10443 10445 10447 10448 10449 10450 10451 10452 10452 10453 10453 10455 10457 10458 10459 10460 10460 10462 10462 10462 10462 10463 10463 10463 10463 10463 10463 10464 10463 10463 10463 10463 10462 10461 10460 10460 10458 10457 10456 10455 10454 10453 10452 10450 10449 10447